When you browse on this site, cookies collect data to enhance your experience and personalize the content and advertising you see.
Visit our Privacy Policy to learn more. By continuing to use the site, you agree to this use of cookies and data.
  • In Österreich
  • Länderverzeichnis
  • Für 7 Tage
  • Wassertemperatur
  • Satellitenkarten
  • Wetterkarte
  • News
  • Widgets
  • user-avatar
    Anmelden

    Stündliche Wetter Rivne

    Heute, 19 Mai, Sonntag

    Zeit Temperatur Niederschläge Wind Luftdruck Luftfeuchtigkeit
    00:00 +16°C° 0.1 mm 2 m/S 731 mmHg 96%
    01:00 +15°C° 0.1 mm 2 m/S 731 mmHg 96%
    02:00 +15°C° 0 mm 2 m/S 731 mmHg 96%
    03:00 +15°C° 0 mm 2 m/S 731 mmHg 96%
    04:00 +15°C° 0 mm 2 m/S 731 mmHg 96%
    05:00 +14°C° 0 mm 2 m/S 731 mmHg 96%
    06:00 +16°C° 0 mm 2 m/S 731 mmHg 92%
    07:00 +17°C° 0 mm 2 m/S 731 mmHg 89%
    08:00 +18°C° 0 mm 2 m/S 731 mmHg 85%
    09:00 +19°C° 0.1 mm 2 m/S 731 mmHg 79%
    10:00 +21°C° 0.1 mm 2 m/S 731 mmHg 73%
    11:00 +23°C° 0.1 mm 2 m/S 731 mmHg 67%
    12:00 +24°C° 0.4 mm 2 m/S 731 mmHg 66%
    13:00 +24°C° 0.4 mm 3 m/S 731 mmHg 66%
    14:00 +25°C° 0.4 mm 3 m/S 730 mmHg 66%
    15:00 +24°C° 0.8 mm 3 m/S 730 mmHg 69%
    16:00 +24°C° 0.8 mm 3 m/S 730 mmHg 73%
    17:00 +24°C° 0.8 mm 3 m/S 730 mmHg 76%
    18:00 +21°C° 0.2 mm 3 m/S 730 mmHg 81%
    19:00 +20°C° 0.2 mm 3 m/S 730 mmHg 85%
    20:00 +18°C° 0.2 mm 2 m/S 730 mmHg 90%
    21:00 +18°C° 0 mm 2 m/S 730 mmHg 91%
    22:00 +17°C° 0 mm 2 m/S 730 mmHg 92%
    23:00 +16°C° 0 mm 2 m/S 730 mmHg 94%

    Morgen, 20 Mai, Montag

    Zeit Temperatur Niederschläge Wind Luftdruck Luftfeuchtigkeit
    00:00 +16°C° 0 mm 2 m/S 729 mmHg 94%
    01:00 +16°C° 0 mm 2 m/S 729 mmHg 95%
    02:00 +14°C° 0 mm 3 m/S 729 mmHg 95%
    03:00 +16°C° 0 mm 3 m/S 729 mmHg 95%
    04:00 +16°C° 0 mm 3 m/S 728 mmHg 96%
    05:00 +15°C° 0 mm 4 m/S 728 mmHg 96%
    06:00 +17°C° 0 mm 4 m/S 728 mmHg 93%
    07:00 +17°C° 0 mm 5 m/S 729 mmHg 90%
    08:00 +19°C° 0 mm 5 m/S 729 mmHg 87%
    09:00 +21°C° 0.4 mm 5 m/S 729 mmHg 83%
    10:00 +22°C° 0.4 mm 5 m/S 729 mmHg 78%
    11:00 +24°C° 0.4 mm 6 m/S 730 mmHg 73%
    12:00 +23°C° 2 mm 5 m/S 730 mmHg 74%
    13:00 +23°C° 2 mm 4 m/S 730 mmHg 76%
    14:00 +23°C° 2 mm 4 m/S 730 mmHg 77%
    15:00 +22°C° 2.1 mm 3 m/S 730 mmHg 80%
    16:00 +21°C° 2.1 mm 2 m/S 730 mmHg 84%
    17:00 +21°C° 2.1 mm 1 m/S 730 mmHg 87%
    18:00 +20°C° 0.4 mm 1 m/S 729 mmHg 88%
    19:00 +19°C° 0.4 mm 1 m/S 729 mmHg 89%
    20:00 +19°C° 0.4 mm 1 m/S 729 mmHg 90%
    21:00 +18°C° 0.2 mm 1 m/S 729 mmHg 90%
    22:00 +18°C° 0.2 mm 1 m/S 729 mmHg 90%
    23:00 +16°C° 0.2 mm 2 m/S 729 mmHg 90%

    übermorgen, 21 Mai, Dienstag

    Zeit Temperatur Niederschläge Wind Luftdruck Luftfeuchtigkeit
    00:00 +16°C° 0.3 mm 2 m/S 729 mmHg 91%
    01:00 +16°C° 0.3 mm 2 m/S 729 mmHg 91%
    02:00 +15°C° 0.3 mm 2 m/S 729 mmHg 92%
    03:00 +15°C° 0.1 mm 2 m/S 729 mmHg 92%
    04:00 +15°C° 0.1 mm 2 m/S 729 mmHg 91%
    05:00 +14°C° 0.1 mm 2 m/S 729 mmHg 91%
    06:00 +15°C° 0.2 mm 2 m/S 729 mmHg 90%
    07:00 +15°C° 0.2 mm 2 m/S 729 mmHg 89%
    08:00 +16°C° 0.2 mm 3 m/S 730 mmHg 88%
    09:00 +16°C° 0.1 mm 3 m/S 730 mmHg 83%
    10:00 +17°C° 0.1 mm 4 m/S 730 mmHg 77%
    11:00 +17°C° 0.1 mm 5 m/S 731 mmHg 72%
    12:00 +17°C° 0.1 mm 5 m/S 731 mmHg 68%
    13:00 +19°C° 0.1 mm 4 m/S 731 mmHg 65%
    14:00 +20°C° 0.1 mm 4 m/S 731 mmHg 61%
    15:00 +20°C° 0.2 mm 4 m/S 731 mmHg 62%
    16:00 +19°C° 0.2 mm 4 m/S 731 mmHg 64%
    17:00 +19°C° 0.2 mm 3 m/S 730 mmHg 65%
    18:00 +18°C° 0.1 mm 3 m/S 731 mmHg 70%
    19:00 +16°C° 0.1 mm 3 m/S 731 mmHg 75%
    20:00 +15°C° 0.1 mm 2 m/S 731 mmHg 79%
    21:00 +14°C° 0 mm 2 m/S 731 mmHg 82%
    22:00 +13°C° 0 mm 2 m/S 731 mmHg 85%
    23:00 +12°C° 0 mm 2 m/S 732 mmHg 88%

    22 Mai, Mittwoch

    Zeit Temperatur Niederschläge Wind Luftdruck Luftfeuchtigkeit
    00:00 +12°C° 0 mm 2 m/S 732 mmHg 88%
    01:00 +12°C° 0 mm 2 m/S 732 mmHg 87%
    02:00 +10°C° 0 mm 2 m/S 732 mmHg 87%
    03:00 +10°C° 0 mm 2 m/S 732 mmHg 88%
    04:00 +11°C° 0 mm 1 m/S 732 mmHg 89%
    05:00 +11°C° 0 mm 1 m/S 732 mmHg 90%
    06:00 +13°C° 0 mm 2 m/S 732 mmHg 84%
    07:00 +14°C° 0 mm 3 m/S 732 mmHg 78%
    08:00 +17°C° 0 mm 4 m/S 733 mmHg 73%
    09:00 +18°C° 0 mm 4 m/S 733 mmHg 69%
    10:00 +19°C° 0 mm 4 m/S 733 mmHg 64%
    11:00 +20°C° 0 mm 4 m/S 733 mmHg 60%
    12:00 +20°C° 0.1 mm 5 m/S 733 mmHg 61%
    13:00 +20°C° 0.1 mm 5 m/S 732 mmHg 62%
    14:00 +20°C° 0.1 mm 6 m/S 732 mmHg 62%
    15:00 +20°C° 0 mm 5 m/S 732 mmHg 63%
    16:00 +20°C° 0 mm 4 m/S 732 mmHg 64%
    17:00 +20°C° 0 mm 4 m/S 732 mmHg 66%
    18:00 +18°C° 0 mm 3 m/S 732 mmHg 71%
    19:00 +17°C° 0 mm 3 m/S 732 mmHg 77%
    20:00 +15°C° 0 mm 2 m/S 732 mmHg 83%
    21:00 +14°C° 0 mm 2 m/S 732 mmHg 86%
    22:00 +13°C° 0 mm 2 m/S 732 mmHg 89%
    23:00 +12°C° 0 mm 2 m/S 732 mmHg 91%

    23 Mai, Donnerstag

    Zeit Temperatur Niederschläge Wind Luftdruck Luftfeuchtigkeit
    00:00 +12°C° 0 mm 2 m/S 732 mmHg 92%
    01:00 +12°C° 0 mm 2 m/S 732 mmHg 92%
    02:00 +12°C° 0 mm 2 m/S 732 mmHg 93%
    03:00 +12°C° 0 mm 2 m/S 732 mmHg 93%
    04:00 +12°C° 0 mm 2 m/S 732 mmHg 93%
    05:00 +12°C° 0 mm 1 m/S 732 mmHg 93%
    06:00 +13°C° 0 mm 2 m/S 732 mmHg 91%
    07:00 +15°C° 0 mm 2 m/S 732 mmHg 88%
    08:00 +16°C° 0 mm 2 m/S 732 mmHg 86%
    09:00 +17°C° 0.3 mm 2 m/S 732 mmHg 84%
    10:00 +18°C° 0.3 mm 3 m/S 733 mmHg 82%
    11:00 +18°C° 0.3 mm 3 m/S 733 mmHg 80%
    12:00 +19°C° 0.7 mm 3 m/S 732 mmHg 79%
    13:00 +19°C° 0.7 mm 3 m/S 732 mmHg 77%
    14:00 +20°C° 0.7 mm 4 m/S 732 mmHg 76%
    15:00 +20°C° 0.5 mm 3 m/S 732 mmHg 76%
    16:00 +20°C° 0.5 mm 3 m/S 732 mmHg 76%
    17:00 +20°C° 0.5 mm 3 m/S 731 mmHg 76%
    18:00 +18°C° 0.6 mm 3 m/S 732 mmHg 82%
    19:00 +17°C° 0.6 mm 4 m/S 732 mmHg 87%
    20:00 +14°C° 0.6 mm 4 m/S 732 mmHg 93%
    21:00 +14°C° 0 mm 4 m/S 732 mmHg 94%
    22:00 +13°C° 0 mm 4 m/S 732 mmHg 95%
    23:00 +12°C° 0 mm 3 m/S 733 mmHg 96%

    24 Mai, Freitag

    Zeit Temperatur Niederschläge Wind Luftdruck Luftfeuchtigkeit
    00:00 +12°C° 0 mm 3 m/S 733 mmHg 96%
    01:00 +12°C° 0 mm 3 m/S 732 mmHg 96%
    02:00 +12°C° 0 mm 3 m/S 732 mmHg 96%
    03:00 +12°C° 0.1 mm 3 m/S 733 mmHg 96%
    04:00 +13°C° 0.1 mm 3 m/S 733 mmHg 96%
    05:00 +13°C° 0.1 mm 3 m/S 733 mmHg 97%
    06:00 +13°C° 0.1 mm 4 m/S 733 mmHg 96%
    07:00 +12°C° 0.1 mm 4 m/S 733 mmHg 95%
    08:00 +12°C° 0.1 mm 4 m/S 733 mmHg 94%
    09:00 +12°C° 0 mm 4 m/S 733 mmHg 92%
    10:00 +13°C° 0 mm 4 m/S 733 mmHg 90%
    11:00 +13°C° 0 mm 4 m/S 732 mmHg 88%
    12:00 +14°C° 0 mm 4 m/S 732 mmHg 82%
    13:00 +15°C° 0 mm 4 m/S 732 mmHg 77%
    14:00 +17°C° 0 mm 3 m/S 731 mmHg 71%
    15:00 +17°C° 0 mm 3 m/S 731 mmHg 72%
    16:00 +17°C° 0 mm 3 m/S 731 mmHg 73%
    17:00 +17°C° 0 mm 3 m/S 730 mmHg 73%
    18:00 +16°C° 0 mm 2 m/S 730 mmHg 78%
    19:00 +15°C° 0 mm 1 m/S 730 mmHg 82%
    20:00 +14°C° 0 mm 1 m/S 729 mmHg 87%
    21:00 +13°C° 0 mm 1 m/S 729 mmHg 88%
    22:00 +13°C° 0 mm 1 m/S 729 mmHg 89%
    23:00 +12°C° 0 mm 1 m/S 729 mmHg 90%
    Mehr zeigen